User: anonymous   Login
Location: Unspecified
(0.0000°N, 0.0000°E)
Time: 11:20:28
(UTC+00:00)
Language:

Temisat - Orbit

View from above orbital plane
View from above orbital plane
View from above satellite
View from above satellite

Ground track
Ground track

The orbit data is extracted from the following two-line orbital elements,

1 22783U 93055B   18203.61700086 +.00000021 +00000-0 +54436-5 0  9996
2 22783 082.5502 067.9195 0023539 029.3405 330.9071 13.83694955256748
Epoch (UTC): 22 July 2018 14:48:28
Eccentricity: 0.0023539
inclination: 82.5502°
perigee height: 933 km
apogee height: 968 km
right ascension of ascending node: 67.9195°
argument of perigee: 29.3405°
revolutions per day: 13.83694955
mean anomaly at epoch: 330.9071°
orbit number at epoch: 25674

The dashed part of the orbit path shows where the satellite is in the earth's shadow,  

DLR